TimeEDT,TemperatureF,Dew PointF,Humidity,Sea Level PressureIn,VisibilityMPH,Wind Direction,Wind SpeedMPH,Gust SpeedMPH,PrecipitationIn,Events,Conditions,WindDirDegrees,DateUTC
12:53 AM,48.9,21.0,33,29.79,10.0,West,5.8,-,N/A,,Clear,280,2012-11-01 04:53:00
1:53 AM,46.4,19.4,34,29.80,10.0,Calm,Calm,-,N/A,,Clear,0,2012-11-01 05:53:00
2:53 AM,43.0,23.0,45,29.79,10.0,West,4.6,-,N/A,,Clear,270,2012-11-01 06:53:00
3:53 AM,41.0,23.0,49,29.79,10.0,NW,3.5,-,N/A,,Clear,310,2012-11-01 07:53:00
4:53 AM,42.1,23.0,47,29.80,10.0,NW,4.6,-,N/A,,Clear,310,2012-11-01 08:53:00
5:53 AM,39.0,25.0,57,29.81,10.0,NNW,5.8,-,N/A,,Clear,330,2012-11-01 09:53:00
6:53 AM,37.0,26.1,65,29.83,10.0,Calm,Calm,-,N/A,,Clear,0,2012-11-01 10:53:00
7:53 AM,37.0,25.0,62,29.85,10.0,Calm,Calm,-,N/A,,Clear,0,2012-11-01 11:53:00
8:53 AM,39.9,28.0,63,29.86,10.0,NNW,4.6,-,N/A,,Clear,340,2012-11-01 12:53:00
9:53 AM,48.2,30.2,50,29.87,10.0,North,8.1,-,N/A,,Clear,350,2012-11-01 13:53:00
10:53 AM,51.1,27.0,39,29.88,10.0,Variable,3.5,-,N/A,,Clear,0,2012-11-01 14:53:00
11:53 AM,54.0,28.0,37,29.88,10.0,Variable,4.6,-,N/A,,Clear,0,2012-11-01 15:53:00
12:53 PM,55.9,26.1,32,29.86,10.0,SW,6.9,-,N/A,,Clear,230,2012-11-01 16:53:00
1:53 PM,57.2,24.8,29,29.83,10.0,WSW,9.2,-,N/A,,Clear,250,2012-11-01 17:53:00
2:53 PM,62.1,25.0,24,29.81,10.0,WSW,10.4,16.1,N/A,,Clear,250,2012-11-01 18:53:00
3:53 PM,64.0,21.9,20,29.80,10.0,Variable,5.8,-,N/A,,Clear,0,2012-11-01 19:53:00
4:53 PM,63.0,19.9,19,29.79,10.0,South,3.5,-,N/A,,Clear,180,2012-11-01 20:53:00
5:53 PM,61.0,21.9,22,29.81,10.0,Calm,Calm,-,N/A,,Clear,0,2012-11-01 21:53:00
6:53 PM,53.1,28.9,40,29.84,10.0,NNE,8.1,-,N/A,,Clear,30,2012-11-01 22:53:00
7:53 PM,50.0,27.0,41,29.87,10.0,WSW,8.1,-,N/A,,Clear,240,2012-11-01 23:53:00
8:53 PM,48.9,21.0,33,29.89,10.0,NNW,3.5,-,N/A,,Clear,330,2012-11-02 00:53:00
9:53 PM,43.0,27.0,53,29.90,10.0,South,3.5,-,N/A,,Clear,190,2012-11-02 01:53:00
10:53 PM,43.0,25.0,49,29.90,10.0,WSW,4.6,-,N/A,,Clear,240,2012-11-02 02:53:00
11:53 PM,44.1,23.0,43,29.90,10.0,West,5.8,-,N/A,,Clear,260,2012-11-02 03:53:00